EST,Max TemperatureF,Mean TemperatureF,Min TemperatureF,Max Dew PointF,MeanDew PointF,Min DewpointF,Max Humidity, Mean Humidity, Min Humidity, Max Sea Level PressureIn, Mean Sea Level PressureIn, Min Sea Level PressureIn, Max VisibilityMiles, Mean VisibilityMiles, Min VisibilityMiles, Max Wind SpeedMPH, Mean Wind SpeedMPH, Max Gust SpeedMPH,PrecipitationIn, CloudCover, Events, WindDirDegrees
2013-11-1,61,52,44,57,42,36,90,75,59,29.66,29.45,29.10,10,10,9,25,14,43,0.04,8,Rain,242
2013-11-2,45,40,34,43,39,30,93,88,79,30.11,29.79,29.63,10,8,2,14,6,18,0.15,7,Rain,316
2013-11-3,42,37,32,34,30,26,93,77,57,30.45,30.33,30.12,10,10,10,7,5,,0.00,5,,75
2013-11-4,46,39,32,34,28,23,85,65,42,30.50,30.41,30.31,10,10,10,14,8,24,0.00,5,,128
2013-11-5,53,48,42,45,41,34,83,74,64,30.35,30.30,30.17,10,10,8,9,6,,0.00,7,,180
2013-11-6,55,48,42,52,45,37,94,82,61,30.15,29.91,29.79,10,9,2,23,11,30,0.24,8,Rain,220
2013-11-7,42,37,32,37,29,23,88,73,49,30.12,30.07,29.99,10,9,1,23,12,36,0.00,7,Rain-Snow,294
2013-11-8,42,36,30,28,25,22,85,68,45,30.28,30.21,30.12,10,10,10,14,8,16,0.00,3,,252
2013-11-9,54,45,36,38,32,27,73,59,50,30.18,29.92,29.79,10,10,10,23,11,34,0.00,6,,222
2013-11-10,46,40,35,33,28,26,73,60,46,30.26,30.11,29.89,10,10,10,25,14,38,0.00,5,,279
2013-11-11,41,34,26,36,28,17,93,79,63,30.30,30.11,30.00,10,6,0,20,10,29,0.12,7,Fog-Rain-Snow,295
2013-11-12,32,28,23,19,16,13,75,64,51,30.54,30.48,30.32,10,10,10,17,13,24,0.00,3,,316
2013-11-13,39,29,19,21,14,6,85,57,28,30.54,30.37,30.14,10,10,10,17,8,25,0.00,1,,233
2013-11-14,48,39,30,24,19,14,59,44,36,30.14,30.05,29.97,10,10,10,16,12,22,0.00,2,,215
2013-11-15,48,42,36,28,24,20,65,49,38,30.06,30.02,29.99,10,10,10,12,7,17,0.00,4,,201
2013-11-16,55,44,33,51,40,28,89,81,65,30.11,29.99,29.81,10,9,6,15,7,24,0.00,6,Rain,166
2013-11-17,60,52,44,58,53,38,100,88,66,29.78,29.48,29.22,10,8,2,32,13,56,0.65,8,Rain-Thunderstorm,185
2013-11-18,46,40,33,38,28,20,73,64,56,30.11,29.78,29.48,10,10,10,28,22,47,0.00,8,,273
2013-11-19,41,36,28,23,20,18,75,58,41,30.42,30.31,30.13,10,10,10,17,10,29,0.00,3,,342
2013-11-20,44,36,28,31,26,22,86,70,45,30.45,30.36,30.25,10,10,10,14,5,23,0.00,4,,118
2013-11-21,46,42,39,43,37,28,100,80,60,30.29,30.22,30.16,10,8,2,12,7,,0.17,8,Rain,177
2013-11-22,44,35,26,43,36,22,100,89,70,30.35,30.20,30.12,10,5,1,17,6,25,0.07,7,Rain-Snow,303
2013-11-23,27,21,15,22,14,4,88,69,46,30.50,30.34,30.23,10,8,2,25,13,36,0.00,5,Snow,300
2013-11-24,21,16,12,13,8,4,77,65,48,30.59,30.52,30.41,10,10,9,18,12,23,0.00,3,Snow,282
2013-11-25,30,24,19,24,13,5,85,61,45,30.39,30.18,30.06,10,10,7,17,11,25,0.00,6,Snow,217
2013-11-26,32,30,28,27,25,23,89,81,75,30.09,30.00,29.90,9,8,5,14,7,18,0.00,8,Snow,227
2013-11-27,27,22,17,22,12,7,81,65,50,30.19,30.00,29.90,10,10,5,22,15,29,0.00,5,Snow,316
2013-11-28,26,20,15,18,15,8,89,78,60,30.43,30.29,30.20,10,7,1,12,6,,0.00,6,Snow,202
2013-11-29,32,21,10,20,15,7,88,76,48,30.66,30.59,30.44,10,10,7,7,1,,0.00,3,,142
2013-11-30,42,35,28,26,23,21,78,66,49,30.54,30.29,30.09,10,10,8,13,8,,0.00,4,,175